STARLINK-11343, 62017

Orbit data source: Space-Track

STARLINK-11343, 62017 is a payload satellite owned by SpaceX/Seattle (US) in LEO that was launched on Mon, 18 Nov 2024 UTC via an FALCON 9 launch vehicle from the Air Force Western Test Range (AFWTR). Payloads include a variety of satellites, spacecraft, and rockets equipped with specific instruments for various scientific and technological missions. These include communications satellites like Starlink; space stations such as the ISS; scientific satellites like the Hubble; Earth observation satellites from companies like Planet Labs, Umbra, and HawkEye 360; GPS; miniature CubeSats for education and research; and military/defense satellites.

Loading next visibility...
STARLINK-11343 details
Identifier
62017, 2024-213K
Orbit
LEO
Last TLE update8 hours ago
Origin
Flag of USSpaceX/Seattle (US)
ManufacturerSpaceX/Seattle
MissionOperational spacecraft
Bus & MotorSTARLINK V2M, Unknown motor
Mass730 kg wet, ~700 kg dry
Launch date (UTC)
2024-11-18 (1 month ago)
Launch vehicle
FALCON 9
Launch site
Air Force Western Test Range (AFWTR)
Object type
Payload
Rocket body
Debris
Shape & HBRUnknown
Radar Cross SectionLarge (>1 m²)

Expand to show TLE details & history

TLE from 8 hours ago
0 STARLINK-11343
1 62017U 24213K   24361.11096634  .00059400  00000-0  36430-3 0  9991
2 62017  53.1554  46.0812 0001402  87.9012 272.2169 15.76734011  7197
Epoch: 2024-12-26T02:39Z
Definitive object data (Epoch: 2024-12-26T02:39:47.491Z)
Latitude-0.00007°
Longitude-88.96179°
Altitude340.582 km
Speed7.706 km/s
True Right ascension03h 04m 19s
True Declination0° 00' 00"
Sunlit
Object was in full shadow at TLE epoch
Visualization TLE readout
Latitude38.30797°
Longitude-54.52705°
Altitude342.085 km
Speed7.709 km/s
Apparent Right ascension01h 49m 02s
Apparent Declination0° 44' 55"
Sunlit
Object is in full shadow
Visualization observer readout
Local Sidereal Time09:50:08
Azimuth291.115° WNW
Elevation-22.226°
Doppler factor1
Orbital elements
Apogee altitude340.905 km
Perigee altitude339.022 km
Semi-major axis6,718.101 km
Eccentricity0.0001402
Inclination53.1554°
RAAN46.0812°
Arg. of periapsis87.9012°
True anomaly272.20085°
Mean anomaly272.2169°
Eccentric anomaly272.20887°
Mean motion3.94161 °/min
BSTAR0.0003643
Orbital period91.33 mins
Loading maneuver chart data...
Loading historical data...
Loading historical data...
Loading historical data...
Loading historical data...
Loading historical data...
Loading historical data...
Loading historical data...

STARLINK-11343 Visibility forecast

Observer location: undefined°, undefined

Span
Click to sort rows by Start time (UTC) header in descending order
Start Az.
Max El. time (UTC)
Max El. Az.
Max El.
End time (UTC)
End Az.
4 mins2024-12-26 12:15:57.299Z334.981° NNW2024-12-26 12:17:57.299Z35.857° NE26.623°2024-12-26 12:19:57.299Z92.838° ESE
|